Flag for U.S.A. Weather past 2 weeks in Paradise, Nevada, U.S.A.

Now
66 °F

Passing clouds.


Feels Like: 66 °F
Forecast: 57 / 83 °F
Wind: 7 mph from Southwest

Location: McCarran International Airport

Current Time: Apr 21, 2015 at 6:56:50 AM

Latest Report: Apr 21, 2015 at 5:56 AM


Visibility: 10 mi

Pressure: 29.69 "Hg

Humidity: 18%

Dew point: 21 °F

Location of ParadiseLocation

Historic Weather in Paradise — Graph

°F

Paradise temperature yesterday

Maximum temperature yesterday: 87 °F (at 12:56 PM)
Minimum temperature yesterday: 67 °F (at 4:56 AM)
Average temperature yesterday: 78 °F

Past Weeks' High & Low Weather Summary

 TemperatureHumidityPressure
High89 °F (Apr 13, 3:56 PM)51% (Apr 7, 11:56 PM)30.13 "Hg (Apr 7, 11:56 PM)
Low49 °F (Apr 15, 5:56 AM)5% (Apr 13, 3:56 PM)29.59 "Hg (Apr 20, 5:56 PM)
Average68 °F14%29.84 "Hg
* Reported Apr 6 4:56 AM — Apr 21 4:56 AM, Paradise, Weather by CustomWeather, © 2015

Note: Actual official high and low records may vary slightly from our data, if they occured in-between our weather recording intervals... More about our weather records

Advertising

Paradise weather history for previous 24 hours

 ConditionsComfort  
Time TempWeatherWind HumidityBarometerVisibility
4:56 AM
Tue, Apr 21
69 °FPassing clouds.10 mph15%29.67 "Hg10 mi
3:56 AM69 °FPassing clouds.10 mph15%29.67 "Hg10 mi
2:56 AM72 °FPassing clouds.14 mph12%29.66 "Hg10 mi
1:56 AM73 °FPassing clouds.10 mph11%29.66 "Hg10 mi
12:56 AM73 °FPassing clouds.9 mph11%29.66 "Hg10 mi
11:56 PM
Mon, Apr 20
75 °FPassing clouds.12 mph10%29.66 "Hg10 mi
10:56 PM76 °FPassing clouds.10 mph10%29.65 "Hg10 mi
9:56 PM79 °FPassing clouds.14 mph9%29.65 "Hg10 mi
8:56 PM81 °FPassing clouds.17 mph8%29.62 "Hg10 mi
7:56 PM82 °FScattered clouds.10 mph8%29.61 "Hg10 mi
6:56 PM85 °FScattered clouds.15 mph7%29.60 "Hg10 mi
5:56 PM86 °FScattered clouds.8 mph7%29.59 "Hg10 mi
4:56 PM87 °FScattered clouds.15 mph7%29.60 "Hg10 mi
3:56 PM86 °FScattered clouds.5 mph8%29.60 "Hg10 mi
2:56 PM87 °FScattered clouds.12 mph7%29.63 "Hg10 mi
1:56 PM87 °FScattered clouds.10 mph7%29.65 "Hg10 mi
12:56 PM87 °FScattered clouds.6 mph7%29.68 "Hg10 mi
11:56 AM83 °FScattered clouds.5 mph8%29.71 "Hg10 mi
10:56 AM82 °FScattered clouds.3 mph9%29.73 "Hg10 mi
9:56 AM78 °FScattered clouds.No wind10%29.75 "Hg10 mi
8:56 AM75 °FPassing clouds.5 mph11%29.74 "Hg10 mi
7:56 AM71 °FPassing clouds.6 mph13%29.74 "Hg10 mi
6:56 AM68 °FPassing clouds.7 mph16%29.72 "Hg10 mi
Weather by CustomWeather, © 2015

See weather overviewHow to use our weather pages